Tracking 19969 objects as of 13-Nov-2019
Live streaming from Space Station
objects crossing your sky now
Track the group of recently launched Starlink satellites

SL-14 DEB

Track SL-14 DEB now!
10-day predictions


NORAD ID: 26008
Int'l Code: 1991-068T
Perigee: 1,345.6 km
Apogee: 1,489.2 km
Inclination: 82.6 °
Period: 114.0 minutes
Semi major axis: 7788 km
RCS: 0.1445 m2 (medium)
Launch date: September 28, 1991
Source: Commonwealth of Independent States (former USSR) (CIS)
Launch site: PLESETSK MISSILE AND SPACE COMPLEX (PKMTR)

Note: This is SATELLITE DEBRIS
aabbcc
Your satellite tracking list
Your tracking list is empty




NASA's NSSDC Master Catalog

Two Line Element Set (TLE):
1 26008U 91068T   19316.87978811 +.00000004 +00000-0 -36839-4 0  9997
2 26008 082.6248 117.9023 0092183 149.1089 005.4243 12.63082961926223
Source of the keplerian elements: AFSPC